Location: Fort Worth, Tx
(32.7431°N, 97.3695°W)
Time: 08:46:44
(UTC-04:00)

AO-27 - Visible Passes

Search period start: 27 March 2023 00:00
Search period end: 06 April 2023 00:00
Orbit: 785 x 796 km, 98.9° (Epoch: 27 March)

Date Brightness Start Highest point End Pass type
(mag) Time Alt. Az. Time Alt. Az. Time Alt. Az.
27 Mar 8.4 21:31:28 10° SE 21:36:01 32° ENE 21:40:36 10° N visible
27 Mar 9.7 23:11:27 11° SSW 23:15:25 24° W 23:19:37 10° NW visible
28 Mar 8.5 22:41:44 14° S 22:46:00 49° W 22:51:03 10° NNW visible
29 Mar 7.5 22:12:01 13° SSE 22:16:41 83° ENE 22:21:55 10° N visible
30 Mar 8.1 21:42:39 10° SE 21:47:29 41° ENE 21:52:22 10° N visible
30 Mar 10.0 23:23:29 10° SW 23:27:04 19° W 23:30:39 10° NW visible
31 Mar 8.9 21:14:34 10° ESE 21:18:26 22° ENE 21:22:18 10° NNE visible
31 Mar 9.0 22:53:20 13° SSW 22:57:35 37° W 23:02:24 10° NNW visible
01 Apr 7.8 22:23:37 13° S 22:28:14 76° WSW 22:33:28 10° NNW visible
02 Apr 7.8 21:53:57 10° SSE 21:58:59 54° ENE 22:04:04 10° N visible
02 Apr 10.3 23:36:01 10° SW 23:38:42 14° W 23:41:24 10° WNW visible
03 Apr 8.6 21:25:32 10° SE 21:29:52 28° ENE 21:34:14 10° NNE visible
03 Apr 9.4 23:04:56 11° SSW 23:09:10 29° W 23:13:40 10° NW visible
04 Apr 8.2 22:35:13 13° S 22:39:46 58° WSW 22:44:56 10° NNW visible
05 Apr 7.6 22:05:30 11° SSE 22:10:29 71° ENE 22:15:42 10° N visible
05 Apr 10.5 23:49:32 10° W 23:50:21 10° W 23:51:09 10° W visible
